Wind_Speed
12 8 3 3 1 1 2 4 1 6 6 2 5 3 7 6 2 2 4 6 11 10 10 9 9 9 8 10 10 12 12 12 12 14 15 15 15 13 13 13 13 11 9 9 8 6 6 6 6
10 6 3 2 1 2 3 3 7 6 7 14 10 8 4 4 4 6 3 8 11 13 12 10 9 9 8 9 9 10 10 11 11 11 12 13 12 12 12 12 11 10 9 9 7 5 4 4 4
5 5 1 3 2 3 3 4 7 10 9 4 5 5 4 4 7 5 9 10 13 13 13 12 10 9 9 9 9 9 9 9 8 9 9 10 11 11 11 10 9 9 8 7 6 4 4 4 3
2 2 3 1 3 3 2 3 8 14 3 3 9 9 6 4 3 8 11 11 13 13 12 11 10 10 10 10 9 9 9 8 7 6 6 6 7 8 8 8 7 7 7 6 4 4 3 4 5
5 2 1 1 3 3 3 2 17 9 5 7 2 6 4 4 7 13 14 13 12 13 11 10 9 10 10 10 9 9 8 7 7 5 5 6 6 6 6 6 6 6 6 6 5 5 4 4 5
2 1 2 5 4 3 4 5 13 5 7 6 6 8 3 2 5 11 14 15 15 14 12 10 9 8 8 8 7 7 7 6 5 4 4 5 5 6 7 7 7 7 7 7 6 6 6 6 6
3 1 2 1 3 3 4 8 13 8 9 6 12 6 4 5 8 14 16 17 17 16 13 12 11 8 6 6 4 4 4 4 4 4 3 4 5 5 6 6 7 7 7 8 8 9 9 9 8
3 2 2 3 3 3 4 7 7 10 7 7 1 7 6 11 14 17 17 16 16 16 14 13 11 10 8 6 4 3 3 3 2 3 4 4 3 4 4 3 4 5 7 8 8 9 10 11 11
3 1 2 3 4 3 2 3 3 3 12 3 2 2 7 26 19 17 14 12 13 13 13 12 10 9 8 7 6 5 4 4 3 3 4 1 1 1 0 2 4 4 5 6 7 8 9 11 12
1 3 7 3 3 2 3 4 10 8 8 3 4 11 24 25 19 15 12 11 9 9 11 10 9 8 7 6 5 5 5 5 5 2 2 3 2 3 4 4 1 1 1 2 2 3 4 7 9
2 4 4 3 6 3 3 3 3 7 11 9 16 19 21 23 18 16 12 10 10 9 9 9 8 7 6 6 6 5 4 5 6 5 4 6 6 6 5 4 3 1 2 2 1 1 4 4 3
3 5 4 4 1 2 2 2 4 10 4 4 13 21 22 20 18 17 15 13 12 10 10 10 9 7 6 7 7 8 8 8 7 7 5 6 6 7 7 6 6 5 3 2 2 2 0 1 2
4 5 4 7 9 6 2 6 5 9 1 10 19 18 18 16 18 14 14 13 12 11 11 10 9 8 9 9 10 10 11 11 10 8 8 5 6 5 5 6 5 4 4 3 3 3 3 4 6
1 6 10 7 6 4 5 4 6 5 8 14 19 19 17 16 18 16 15 14 12 12 13 12 11 11 10 11 11 13 13 13 12 11 11 8 8 7 6 6 6 6 7 6 7 8 9 10 11
2 6 9 7 4 4 5 5 9 6 13 15 18 17 16 16 17 17 16 15 15 12 14 14 14 12 11 13 13 13 14 13 14 14 13 12 11 10 8 8 8 8 8 8 8 8 10 11 12
3 1 5 3 7 4 7 20 13 13 17 18 19 17 16 16 18 14 15 14 15 15 15 15 14 13 13 13 14 14 14 15 15 15 15 14 14 12 11 11 11 10 10 10 10 11 10 10 12
1 7 6 7 5 3 11 15 10 15 17 18 18 18 17 15 15 16 17 16 16 15 17 17 16 16 15 15 15 15 14 14 14 13 13 13 12 12 11 11 11 10 10 10 10 9 11 10 13
5 5 4 7 2 6 15 16 7 12 16 20 20 18 18 18 18 19 17 16 16 16 17 18 17 18 16 15 15 14 13 13 12 12 13 12 12 12 10 10 10 9 8 9 10 9 10 8 15
2 4 10 6 7 5 11 18 16 12 13 14 16 18 19 20 15 17 17 17 16 16 17 17 18 19 19 15 12 9 9 10 10 11 12 13 13 13 13 12 11 11 12 11 12 11 12 10 17
11 14 17 13 14 10 19 26 20 13 13 22 22 20 22 17 15 21 20 19 18 18 16 17 17 19 17 13 10 7 10 10 10 11 12 13 13 13 13 13 12 13 11 13 13 13 11 10 15
12 16 11 13 8 10 13 30 24 14 20 18 22 23 23 24 22 19 23 22 19 18 18 18 18 19 18 14 12 12 11 8 7 8 10 13 13 14 14 14 13 13 12 11 10 10 11 9 11
12 11 16 14 6 8 3 16 16 7 17 17 21 21 22 23 21 20 24 24 23 19 18 18 18 19 19 18 13 12 6 7 6 7 9 10 12 13 13 14 12 11 9 9 9 11 12 12 13
8 7 10 9 8 6 11 8 19 6 11 16 19 22 22 22 23 24 25 29 25 21 19 18 17 15 18 17 14 10 9 10 10 9 10 11 12 13 13 12 11 10 10 11 12 13 14 12 9
2 2 1 3 3 8 10 11 28 13 16 11 17 18 18 18 20 19 26 27 25 22 21 19 18 16 16 17 15 14 14 13 12 10 10 10 9 10 12 11 10 11 11 13 13 14 15 12 9
5 2 3 4 5 9 9 12 22 10 10 8 12 15 18 19 20 21 23 28 28 26 23 21 20 18 18 18 17 15 14 12 13 11 10 9 8 8 10 9 9 11 12 13 13 13 12 10 9
9 9 5 5 4 4 3 11 10 3 5 8 6 9 13 18 19 21 22 28 29 28 25 22 21 21 20 19 19 17 15 12 12 10 9 8 9 9 9 10 10 11 12 12 11 11 10 10 11
3 8 14 6 8 3 5 12 20 8 5 7 8 3 12 15 17 19 22 27 30 29 27 25 23 21 20 19 18 17 15 14 13 11 10 8 9 9 9 9 11 11 11 12 11 12 11 9 9
6 0 1 3 4 6 7 8 13 10 12 14 11 9 8 10 15 17 19 27 28 28 27 24 22 23 21 20 19 17 16 14 13 13 11 10 10 10 9 9 10 10 10 11 11 10 10 9 9
6 6 6 7 4 6 12 8 3 8 7 11 14 11 9 13 14 16 17 24 27 28 26 24 23 23 22 21 20 20 18 16 14 13 11 9 10 10 9 9 10 10 11 11 10 10 10 10 10
12 11 5 3 3 4 6 11 14 12 11 11 15 11 6 12 16 17 20 28 30 31 29 27 24 24 23 22 23 22 21 18 16 13 11 10 10 11 10 10 11 11 13 11 12 11 11 12 12
Wind_Direction
339 346 26 32 239 346 137 177 273 147 147 158 119 159 113 46 41 97 74 73 111 117 127 135 137 133 132 130 127 124 123 120 124 136 149 154 157 159 161 161 161 163 164 159 153 140 127 117 108
345 345 45 97 150 198 184 168 186 159 136 126 104 116 87 94 66 97 94 96 106 116 120 121 135 133 131 131 130 131 129 130 131 136 145 152 157 161 162 165 165 164 163 157 154 150 141 131 124
349 28 354 74 102 228 202 194 162 137 143 170 113 48 88 101 77 96 115 118 117 110 113 117 126 133 138 140 138 140 135 131 133 137 143 151 156 163 169 171 171 169 168 169 168 169 158 166 167
7 57 89 268 213 233 237 164 155 148 97 71 119 93 91 20 18 113 132 131 125 110 110 118 123 128 135 140 140 139 143 142 140 143 148 158 166 174 178 183 183 182 184 184 195 200 194 184 185
41 55 113 200 242 270 263 218 163 146 127 131 81 135 77 46 94 123 137 139 137 121 116 118 128 131 135 134 131 129 135 139 146 157 167 174 185 189 195 201 206 207 209 208 216 228 232 229 224
65 59 173 224 207 225 253 195 169 138 145 139 122 119 108 72 124 114 126 128 126 130 126 125 135 143 144 141 140 141 136 137 142 162 181 189 200 211 215 215 218 220 224 228 219 233 251 254 253
130 117 250 235 258 262 209 163 187 166 147 175 137 117 123 133 127 124 122 121 122 121 122 121 117 118 140 155 161 163 164 169 168 159 179 202 207 215 227 229 232 233 235 238 238 238 240 244 246
111 116 176 230 244 264 169 160 191 162 157 118 117 169 172 173 149 133 125 120 119 120 119 117 119 116 117 124 149 172 169 152 171 196 213 207 208 221 225 221 235 241 242 241 245 248 250 248 243
142 126 219 242 186 281 202 165 156 88 139 80 43 175 140 146 146 135 128 120 116 113 112 114 117 122 121 120 133 148 154 133 113 67 53 328 164 196 54 228 232 238 249 247 250 256 258 259 257
131 181 204 210 210 268 281 206 157 160 155 134 113 102 137 145 153 151 156 139 119 104 103 104 106 111 113 117 121 123 111 89 73 78 95 92 119 129 130 125 134 161 202 237 248 259 278 279 270
170 219 201 246 235 263 288 180 199 166 193 190 186 157 157 154 162 159 153 141 131 122 109 101 102 102 110 117 119 117 113 93 78 79 81 92 114 128 140 139 127 102 53 47 118 65 305 301 315
292 265 242 281 14 293 234 189 197 181 190 264 169 164 159 165 167 167 157 150 145 135 123 110 97 91 93 103 106 102 99 99 104 93 99 104 103 103 100 100 92 79 59 57 26 43 339 297 305
214 284 292 286 295 267 232 229 253 218 57 138 146 164 171 169 167 166 157 150 148 138 127 118 112 109 106 106 102 101 98 95 93 91 89 102 102 99 90 80 66 51 36 2 352 349 320 304 295
299 288 286 294 284 268 234 206 165 211 155 151 160 173 177 177 169 159 162 156 155 141 134 132 128 120 118 110 105 100 99 96 94 86 79 80 79 78 69 52 43 26 17 6 351 339 330 317 310
281 298 297 246 255 254 204 218 222 163 171 169 179 177 176 178 176 180 172 163 154 143 142 141 132 129 127 119 113 106 97 91 84 80 75 72 72 66 63 54 44 32 20 8 356 346 334 327 320
290 192 278 309 216 230 202 254 223 169 170 185 188 184 183 186 186 183 174 163 159 152 153 147 142 139 132 124 115 106 100 94 87 81 74 68 66 64 62 58 51 41 31 25 17 7 358 346 338
332 261 234 291 226 249 213 259 237 176 189 193 193 191 191 186 189 186 177 170 163 160 154 148 153 148 141 130 121 113 104 92 81 75 67 63 61 58 57 54 47 38 31 25 21 14 9 355 345
216 227 225 248 295 236 246 248 242 201 203 201 198 199 199 199 197 183 175 166 162 160 155 152 158 154 148 139 128 115 103 90 80 69 64 61 59 58 60 54 44 39 35 27 19 15 9 3 343
201 251 263 250 260 279 261 266 255 236 209 217 210 211 210 209 189 180 174 170 165 163 160 161 165 164 159 151 140 127 113 97 82 69 64 60 57 54 54 52 45 42 39 32 25 21 15 10 357
231 254 263 274 267 273 280 272 258 241 217 212 212 211 216 203 192 186 179 175 176 167 164 169 173 174 173 172 164 146 131 102 89 76 64 60 57 54 51 48 43 39 37 32 29 27 21 25 20
220 224 244 254 303 279 282 278 262 231 227 214 218 215 215 206 197 185 182 183 178 172 172 174 176 180 183 186 167 147 126 108 85 72 66 59 58 56 55 53 49 45 44 40 38 35 33 26 27
245 208 234 247 261 270 214 290 262 259 226 218 217 212 212 205 198 188 184 182 182 179 173 172 174 176 183 184 177 166 156 140 123 101 87 77 71 68 67 63 59 57 56 50 47 44 44 39 30
263 188 211 223 226 283 237 265 272 237 235 225 223 217 214 203 192 187 184 180 180 172 169 162 161 163 172 172 173 173 146 132 128 116 102 84 75 74 72 69 64 61 59 57 55 50 47 47 50
154 207 167 76 184 254 226 209 279 273 239 238 229 221 218 203 196 188 181 173 173 169 166 161 157 155 157 163 164 161 148 142 136 124 106 91 84 80 76 73 71 66 62 55 52 48 44 43 42
192 185 221 214 194 251 170 196 246 304 299 274 258 223 208 193 188 184 179 175 170 168 164 159 157 152 154 153 150 150 144 138 133 126 118 112 99 85 78 76 67 60 56 56 54 46 45 42 45
207 204 234 245 212 297 215 244 251 314 317 334 248 240 193 194 189 188 182 174 170 167 165 162 159 153 154 152 147 146 143 139 133 129 128 108 99 91 81 74 70 63 60 61 59 50 45 35 41
209 213 238 256 259 245 258 277 285 281 290 358 343 257 203 195 189 186 182 175 169 168 167 164 162 157 154 150 145 141 142 138 135 134 128 111 97 88 83 75 72 65 59 58 59 50 43 35 35
242 209 94 113 253 235 242 267 256 305 296 298 293 264 223 200 185 183 180 175 171 169 167 166 165 159 154 151 147 145 142 139 141 135 126 116 105 103 99 90 81 72 66 61 63 59 47 44 38
292 255 235 249 230 255 269 261 235 298 313 305 298 280 224 196 191 181 176 174 168 165 166 165 164 158 158 155 150 147 145 148 143 138 130 118 112 109 105 100 92 78 70 66 70 67 58 50 46
258 299 327 287 263 263 278 262 279 314 334 338 319 311 242 202 185 181 177 172 172 167 166 167 166 165 164 157 153 154 156 153 148 145 139 131 119 115 112 107 92 81 72 71 70 65 57 46 42
Height
783 782 780 782 794 796 804 800 793 793 793 787 785 789 794 800 803 814 810 809 809 810 811 813 814 816 817 817 818 818 819 821 822 823 824 825 826 827 829 830 831 833 834 836 837 837 838 839 839
783 782 781 786 799 802 798 796 794 786 787 785 785 789 793 805 800 806 809 811 810 809 810 812 813 816 818 818 818 820 822 822 823 824 825 826 827 828 829 831 831 832 834 836 837 838 838 839 839
782 781 785 795 810 800 797 791 788 787 786 786 790 790 795 804 802 806 811 812 811 812 811 812 813 815 817 819 819 820 822 824 825 825 826 827 827 828 830 831 831 833 834 835 836 837 838 839 839
782 783 793 798 803 796 792 785 783 788 787 785 786 800 802 809 806 808 811 811 810 811 812 814 815 815 817 818 820 820 822 823 825 826 827 828 829 829 830 831 832 833 834 835 837 837 838 838 838
784 788 798 804 803 796 789 783 781 786 787 786 788 800 805 810 810 808 809 810 812 813 814 815 816 816 817 818 819 820 821 823 823 825 826 827 828 829 830 831 832 833 834 835 836 837 837 838 838
788 793 802 801 799 791 785 781 782 786 788 789 791 797 808 811 812 810 810 810 811 812 813 815 816 817 817 818 819 820 821 822 823 824 825 826 827 827 828 829 830 831 832 834 835 836 836 837 838
790 796 803 806 799 791 782 778 781 783 788 791 789 803 809 811 812 811 812 812 812 813 815 815 816 816 817 817 819 820 820 821 822 823 824 825 826 826 828 828 829 830 831 832 833 834 834 834 834
790 793 807 804 799 790 779 779 776 777 787 786 791 797 805 808 811 811 812 814 814 813 813 815 815 816 817 817 817 818 819 820 821 821 823 824 825 825 826 827 827 828 829 829 831 832 832 832 832
788 799 806 800 801 789 781 781 780 780 783 791 794 791 794 803 809 811 813 814 814 814 814 814 815 815 816 817 817 818 819 820 820 821 821 822 823 824 825 825 825 826 827 827 828 829 830 830 830
790 798 795 788 787 785 780 781 778 782 788 792 795 796 798 802 808 810 813 813 815 816 815 815 815 815 815 816 817 817 818 819 819 820 821 821 822 822 823 824 824 824 825 825 825 826 827 826 828
796 793 788 782 782 781 781 781 778 780 789 781 783 793 798 801 805 807 811 813 814 815 816 816 816 816 815 816 816 817 818 819 820 820 820 820 821 821 821 822 823 823 824 824 824 824 824 825 825
798 788 787 780 778 779 780 777 779 777 775 776 780 788 793 797 802 805 808 811 812 814 814 815 816 816 816 816 816 816 817 818 819 820 820 820 820 820 821 821 821 822 822 823 823 822 822 822 822
794 789 787 782 781 780 778 777 776 777 780 777 783 792 794 797 801 805 807 809 811 813 813 814 815 816 817 817 818 817 818 819 819 820 820 820 820 820 821 821 821 821 821 822 821 820 820 820 819
792 791 788 784 781 779 778 777 776 778 783 782 785 789 795 798 801 804 807 808 811 812 813 814 816 817 818 818 819 819 819 820 820 820 820 820 820 820 821 821 820 821 821 821 821 819 818 817 817
789 792 785 783 778 776 775 782 777 774 781 782 783 787 792 796 801 802 804 806 807 811 812 815 815 817 818 818 820 820 820 822 822 821 821 821 820 821 821 821 821 821 822 821 821 819 818 817 816
792 793 795 780 775 772 775 771 766 776 778 779 781 785 789 793 798 802 804 806 807 809 812 812 815 817 818 819 820 821 822 823 823 823 823 823 822 822 821 821 821 822 822 821 820 818 817 816 814
802 794 798 787 774 773 775 765 761 773 775 775 779 781 785 791 795 799 801 804 806 810 810 811 814 815 818 819 820 822 823 824 825 825 825 824 823 823 822 821 821 822 821 821 820 819 817 816 814
795 798 798 791 775 778 770 767 765 773 771 769 773 778 782 786 788 795 800 803 806 808 808 809 813 814 817 820 821 822 823 824 825 826 825 825 824 824 823 822 822 821 821 821 819 818 817 815 814
790 795 793 787 779 782 773 763 762 762 774 773 775 777 778 780 789 795 798 801 804 806 807 808 812 813 815 819 821 822 823 824 825 826 825 825 824 823 823 822 822 822 822 821 819 817 816 816 814
788 792 791 786 781 783 772 758 755 756 760 759 763 769 772 779 786 789 794 797 801 802 805 807 810 813 815 819 819 821 822 824 825 826 826 825 824 824 823 823 823 823 823 822 821 819 818 816 816
784 785 786 787 780 776 778 744 742 744 743 749 752 753 759 766 773 782 789 793 797 799 801 804 807 810 813 817 819 820 822 824 826 827 827 826 826 825 825 825 825 824 825 826 825 823 821 818 818
781 776 778 782 791 790 780 751 731 733 736 743 743 745 748 755 766 774 780 787 792 797 798 801 804 807 811 813 817 819 821 823 826 828 828 828 827 827 827 826 826 827 827 827 825 822 820 818 819
773 772 778 780 786 788 778 786 701 724 733 735 734 733 736 743 752 760 769 778 786 792 797 799 804 807 809 812 815 817 819 823 826 828 829 829 829 829 829 828 829 829 829 827 825 821 818 817 818
775 776 779 787 788 788 767 773 712 717 719 716 718 726 733 743 751 760 769 777 783 788 793 796 801 805 808 810 813 816 819 823 826 828 829 831 832 832 831 830 831 830 829 827 824 823 822 823 824
776 782 785 791 792 773 757 768 718 710 718 716 717 722 727 736 746 754 761 768 777 783 789 793 798 803 806 809 812 816 820 823 825 828 830 831 832 832 831 831 832 830 828 826 826 826 826 826 825
773 775 779 789 785 768 769 756 724 721 722 717 714 716 724 733 739 746 755 764 772 779 786 791 796 800 803 807 810 814 819 823 825 827 831 832 831 831 831 831 831 830 828 827 827 828 829 831 827
771 778 764 786 795 794 775 749 719 720 719 723 725 726 725 732 738 745 755 761 768 776 782 788 794 798 801 806 810 814 819 821 824 828 829 831 830 831 831 832 832 832 832 830 829 829 831 833 831
761 761 775 794 786 775 764 759 738 730 727 720 723 726 732 737 740 746 754 760 766 774 780 787 793 796 799 804 808 812 817 821 825 826 828 829 828 829 831 831 831 830 830 829 828 829 832 834 833
767 764 765 765 781 768 758 744 732 730 731 730 722 721 727 734 740 744 752 762 766 772 778 785 791 794 799 802 805 810 814 820 823 826 828 829 827 829 830 831 830 831 830 830 831 831 833 834 833
770 771 771 780 780 775 768 750 722 732 733 731 726 724 727 731 734 740 747 753 760 764 772 779 787 792 797 799 802 807 812 816 819 823 825 827 826 827 830 831 829 832 830 833 832 835 835 837 836